Location: Epalinges
(46.5518°N, 6.6683°E)
Time: 15:20:29
(UTC+00:00)

ARIANE 5 R/B - Pass Details

Date: 20 June 2021
Orbit: 748 x 795 km, 98.7° (Epoch: 31 July)

Event Time Altitude Azimuth Distance (km) Brightness Sun altitude
Rises 02:52:55 0° 14° (NNE) 3,208 6.9 -7.0°
Reaches altitude 10° 02:55:13 10° 15° (NNE) 2,279 6.0 -6.7°
Maximum altitude 03:00:15 88° 107° (ESE) 758 2.5 -6.1°
Drops below altitude 10° 03:05:15 10° 195° (SSW) 2,272 4.4 -5.4°
Enters shadow 03:07:14 - 196° (SSW) 3,073 5.1 -5.2°
